This demonstration page uses our WeatherBlox Daily Observations layout. Learn more.

Left ArrowRight Arrow

41.12389, -100.76542

Hourly Observations for July 3, 2022

Temp ( °F °C ) Dew Point ( °F °C ) Humidity (%) Winds ( mph kmh ) Pressure ( in mb ) Visibility ( mi km ) Precip ( " mm )
12:53 am 00:53 Clear 68 20 64 17.8 87 87 E 8 13 29.96 1015 10 16 0.00 0.00
1:53 am 01:53 Clear 67 19.4 64 17.8 91 91 ESE 9 15 29.96 1015 10 16 0.00 0.00
2:53 am 02:53 Mostly Cloudy 67 19.4 64 17.8 91 91 ESE 7 11 29.96 1015 10 16 0.00 0.00
3:16 am 03:16 Cloudy 69 20.6 66 18.9 90 90 ESE 6 9 29.93 1014 10 16 0.00 0.00
3:53 am 03:53 Cloudy 72 22.2 68 20 87 87 SE 9 15 29.95 1014 10 16 0.00 0.00
4:53 am 04:53 Cloudy 72 22.2 68 20 87 87 S 14 22 29.94 1014 10 16 0.00 0.00
5:53 am 05:53 Cloudy 72 22.2 68 20 87 87 SSE 9 15 29.93 1014 10 16 0.00 0.00
6:53 am 06:53 Cloudy 72 22.2 68 20 87 87 SE 8 13 29.91 1013 10 16 0.00 0.00
7:53 am 07:53 Cloudy 72 22.2 68 20 87 87 SSE 13 20 29.91 1013 10 16 0.00 0.00
8:53 am 08:53 Cloudy 73 22.8 69 20.6 87 87 SSE 9 15 29.92 1013 10 16 0.00 0.00
9:44 am 09:44 Cloudy 76 24.4 69 20.6 79 79 S 14 22 29.85 1011 10 16 0.00 0.00
9:53 am 09:53 Cloudy 77 25 69 20.6 77 77 S 16 26 29.91 1013 10 16 0.00 0.00
10:37 am 10:37 Mostly Cloudy 80 26.7 68 20 67 67 S 17 28 29.83 1010 10 16 0.00 0.00
10:46 am 10:46 Partly Cloudy 81 27.2 68 20 65 65 S 13 20 29.81 1010 10 16 0.00 0.00
10:53 am 10:53 Mostly Sunny 82 27.8 69 20.6 65 65 SSE 10 17 29.91 1013 10 16 0.00 0.00
11:53 am 11:53 Sunny 84 28.9 68 20 59 59 SSE 12 19 29.90 1012 10 16 0.00 0.00
12:53 pm 12:53 Mostly Sunny 88 31.1 69 20.6 54 54 SE 13 20 29.87 1012 10 16 0.00 0.00
1:53 pm 13:53 Sunny 93 33.9 67 19.4 42 42 SSE 10 17 29.84 1011 10 16 0.00 0.00
2:53 pm 14:53 Partly Cloudy 92 33.3 66 18.9 43 43 SSE 9 15 29.82 1010 10 16 0.00 0.00
3:53 pm 15:53 Mostly Cloudy 95 35 65 18.3 37 37 SSE 14 22 29.79 1009 10 16 0.00 0.00
4:53 pm 16:53 Mostly Sunny 95 35 62 16.7 34 34 SSE 13 20 29.78 1008 10 16 0.00 0.00
5:53 pm 17:53 Mostly Sunny 93 33.9 64 17.8 38 38 SE 16 26 29.75 1008 10 16 0.00 0.00
6:53 pm 18:53 Mostly Cloudy with Nearby Thunderstorms 87 30.6 66 18.9 50 50 ESE 10 17 29.76 1008 10 16 0.00 0.00
7:05 pm 19:05 Partly Cloudy with Thunderstorms 86 30 67 19.4 53 53 SE 7 11 29.67 1005 10 16 0.00 0.00
7:20 pm 19:20 Mostly Cloudy with Light Rain 87 30.6 67 19.4 51 51 SE 3 6 29.66 1004 10 16 0.00 0.00
7:34 pm 19:34 Mostly Cloudy with Nearby Thunderstorms 85 29.4 70 21.1 61 61 ESE 9 15 29.65 1004 10 16 0.00 0.00
7:49 pm 19:49 Partly Cloudy 88 31 70 21 55 55 ESE 13 20 29.64 1004 10 16 0.00 0.00
7:53 pm 19:53 Partly Cloudy 87 30.6 70 21.1 57 57 ESE 14 22 29.75 1007 10 16 0.00 0.00
8:53 pm 20:53 Mostly Sunny 82 27.8 69 20.6 65 65 SE 18 30 29.77 1008 10 16 0.00 0.00
9:53 pm 21:53 Mostly Cloudy 77 25 66 18.9 69 69 SE 18 30 29.76 1008 10 16 0.00 0.00
10:35 pm 22:35 Partly Cloudy with Nearby Thunderstorms 75 23.9 67 19.4 76 76 SE 15 24 29.71 1006 10 16 0.00 0.00
10:50 pm 22:50 Mostly Cloudy with Light Rain 73 23 66 19 78 78 SE 21 33 29.70 1006 5 8 0.10 2.54
10:53 pm 22:53 Mostly Cloudy with Light Rain 74 23.3 66 18.9 76 76 SE 22 35 29.75 1007 8 13 0.11 2.79
11:22 pm 23:22 Mostly Cloudy with Nearby Thunderstorms 72 22.2 66 18.9 82 82 ESE 16 26 29.75 1007 10 16 0.01 0.25
11:37 pm 23:37 Mostly Cloudy with Light Rain 73 22.8 66 18.9 79 79 SE 23 37 29.75 1008 10 16 0.01 0.25
11:53 pm 23:53 Cloudy with Light Rain 72 22.2 67 19.4 84 84 ESE 15 24 29.80 1009 10 16 0.02 0.51

Powered by AerisWeather